Overview Statistics Trail Chart Weather Telemetry Raw packets
 

This is the latest recevied weather packets stored in our database for station/object NT9G. If no packets are shown the sender has not sent any weather packets the latest 10 day(s).

<< 16 17 18 19 20 21 22 >>
Time Temp. Humidity Pressure Rain* Wind** Luminosity Snow
1777739484 12.78° C 28% 1021.7 hPa 0 mm - - -
1777739183 13.33° C 27% 1021.7 hPa 0 mm - - -
1777738883 14.44° C 25% 1021.7 hPa 0 mm - - -
1777738583 13.89° C 31% 1021.6 hPa 0 mm - - -
1777738282 13.33° C 25% 1021.7 hPa 0 mm - - -
1777737982 12.78° C 29% 1021.8 hPa 0 mm - - -
1777737682 12.78° C 28% 1021.7 hPa 0 mm - - -
1777737382 12.78° C 28% 1021.7 hPa 0 mm - - -
1777737081 12.78° C 29% 1021.7 hPa 0 mm - - -
1777736781 12.78° C 30% 1021.7 hPa 0 mm - - -
1777736481 12.78° C 31% 1021.8 hPa 0 mm - - -
1777736180 12.78° C 35% 1021.7 hPa 0 mm - - -
1777735880 12.78° C 33% 1021.8 hPa 0 mm - - -
1777735580 12.78° C 34% 1021.8 hPa 0 mm - - -
1777735280 12.78° C 36% 1021.8 hPa 0 mm - - -
1777734979 12.78° C 35% 1021.8 hPa 0 mm - - -
1777734679 12.78° C 33% 1021.8 hPa 0 mm - - -
1777734379 12.78° C 36% 1021.8 hPa 0 mm - - -
1777734079 12.22° C 34% 1021.8 hPa 0 mm - - -
1777733778 12.22° C 37% 1021.8 hPa 0 mm - - -
1777733478 12.78° C 35% 1021.8 hPa 0 mm - - -
1777733178 12.78° C 45% 1021.8 hPa 0 mm - - -
1777732877 12.78° C 44% 1021.8 hPa 0 mm - - -
1777732577 12.22° C 39% 1021.8 hPa 0 mm - - -
1777732277 12.22° C 36% 1021.7 hPa 0 mm - - -

* Rain since midnight (hover to see other rain measurements)
** Current wind speed in m/s (hover to see current wind gust speed)